ANTARES R/B (49065 NORAD) Tracking and Keplerian Element Data

This shows tracking and keplerian element data for the satellite.

Feedback or suggestion? Click here.




ElementValue
Catalog49065
NameANTARES R/B
Epoch Orbit123
Epoch Day230.54493868
Epoch Year2021
RAAN30.5793
Inclination51.592
Eccentricity0.001623
Argument of Perigee198.9692
Mean Anonmoly161.1476
Mean Motion16.49218947
Decay Rate0.17982256
L11 49065U 21072B 21230.54493868 .17982256 12399-4 19251-3 0 9990
L22 49065 51.5920 30.5793 0016230 198.9692 161.1476 16.49218947 1234

Live tracking and technical data element details for ANTARES R/B (NORAD 49065). ANTARES R/B can be tracked NOW for your location showing map with azimuth and elevation plus other details from your city location.

Track the satellite on the map from your city or location and see movement details for azimuth, elevation, latitude, longitude, range, height, and movement on the map or in text.







IsCatalogInMostPopularTable: catalog: 49065, numindb: 7
Update: records affected: 1



GetName: 49065 ANTARES R/B

Hit Count: updated at: Sun, 17 Oct 2021 09:50:07 GMT